CZ-6A DEB

Satellite information

Favourite Embed

Satellite Type and Status

DEBRISIN ORBIT

Key statistics

Satellite CZ-6A DEB at a glance.

Uptime

276

Days in orbit

Revolutions

≈ 14.1

Per day

Orbit

LEO

Low Earth Orbit

Inclination

89.0

Latest

Satellite identification and parameters

Extended collection of information and parameters for CZ-6A DEB.

Object identification

Identified? True

Debris? True

Object name: CZ-6A DEB

International designator: 2024-140TC

Object number (NORAD): 61291

Object ID (CCSDS): 61291

Country: PEOPLES REPUBLIC OF CHINA (PRC)

Current information (Y/N): Y

RCS size: SMALL

Orbital parameters

Period: 101.892 minutes

Inclination: 89.0325 deg

SMA: 7226.357 km

Apoapsis: 917.446 km

Periapsis: 778.999 km

RAAN: 321.6866 deg

Eccentricy: 0.0095793

Argument of periapsis: 75.9427 deg

Mean anomaly: 285.2385 deg

Mean motion: 14.13265059 rev/day

Mean motion (dot): 0.00006276 rev/day2

B* drag term: 0.0031994 1/REarth

Two-line elements (TLE)

Creation date: May 8, 2025, 11:06 p.m.

Reference frame: TEME

Reference center: EARTH

Epoch: May 8, 2025, 12:12 p.m. UTC

TLE line 0: 0 CZ-6A DEB

TLE line 1: 1 61291U 24140TC 25128.50875570 .00006276 00000-0 31994-2 0 9994

TLE line 2: 2 61291 89.0325 321.6866 0095793 75.9427 285.2385 14.13265059 35666

Live tracking on map

Real-time ground track for satellite CZ-6A DEB.

In-orbit conjunctions

A list of the most updated potential collisions computed for object CZ-6A DEB.

Target Orbit TCA Probability of collision Miss distance Type
TIROS 10 SSO 2025-02-21 01:26:33 0.0004848053 451.0 (m) PAYLOAD
COSMOS 2251 DEB LEO 2025-01-22 05:44:25 0.0006759138 107.0 (m) DEBRIS
DMSP 5D-2 F8 DEB SSO 2024-11-28 15:10:12 0.0001507537 420.0 (m) DEBRIS
CZ-6A DEB SSO 2024-11-01 21:13:11 0.0001511072 696.0 (m) DEBRIS

Associated space launch

18 Low Earth Orbit communication satellites with Ku, Q and V band payloads for the G60 constellation operated by Shanghai Spacecom Satellite Technology (SSST) with funding backed by the Shanghai local government. Initial constellation will consist of 1296 satellites by 2027 with long term plans to expand it to 12000 satellites.

CZ-6A DEB was lifted into orbit during the mission ‘Long March 6A | G60 Polar Group 01’, on board a Long March 6A space rocket.

The launch took place on Aug. 6, 2024, 6:42 a.m. from Launch Complex 9A.

For more information about the launch, click the button.

Launch to space Long March 6A | G60 Polar Group 01
Long March 6A | G60 Polar Group 01

Agency: N/A

Status: Launch Successful

Launch date: Aug. 6, 2024, 6:42 a.m. UTC

Rocket: Long March 6A

Launch pad: Launch Complex 9A

Location: Taiyuan Satellite Launch Center, People's Republic of China

...

Latest news about this satellite

News about space launch
Brightness of first Chinese broadband constellation satellites alarms astronomers

The first satellites of a Chinese broadband constellation are significantly brighter than those of Western systems, posing a new challenge for astronomers.

News about space launch
Chinese rocket stage breaks up into cloud of more than 700 pieces of space debris

HELSINKI — A Chinese Long March 6A rocket’s upper stage has fragmented into a cloud of over 700 pieces of space debris, adding to concerns about long-term orbital safety. China […]

News about space launch
China's Thousand Sails Megaconstellation Kicks Off with Dangerous Debris Field

China's Thousand Sails Megaconstellation Kicks Off with Dangerous Debris Field


Newsletter sign-up

Weekly statistics, charts and insights to help you stay on top of the space industry.